This is the latest recevied weather packets stored in our database for station/object N8SDR. If no packets are shown the sender has not sent any weather packets the latest 10 day(s).
| Time | Temp. | Humidity | Pressure | Rain* | Wind** | Luminosity | Snow |
|---|---|---|---|---|---|---|---|
| 1777421385 | 20° C | 76% | 1009.6 hPa | 0 mm | - | 6 W/m² | - |
| 1777421082 | 20.56° C | 75% | 1009.7 hPa | 0 mm | - | 9 W/m² | - |
| 1777420778 | 20.56° C | 74% | 1009.6 hPa | 0 mm | - | 12 W/m² | - |
| 1777420474 | 20.56° C | 74% | 1009.8 hPa | 0 mm | - | 17 W/m² | - |
| 1777420171 | 20.56° C | 74% | 1009.9 hPa | 0 mm | - | 22 W/m² | - |
| 1777419867 | 21.11° C | 73% | 1009.6 hPa | 0 mm | - | 28 W/m² | - |
| 1777419565 | 21.11° C | 73% | 1009.9 hPa | 0 mm | - | 29 W/m² | - |
| 1777419263 | 21.11° C | 72% | 1009.4 hPa | 0 mm | - | 33 W/m² | - |
| 1777418961 | 21.67° C | 71% | 1009.5 hPa | 0 mm | - | 41 W/m² | - |
| 1777418655 | 21.67° C | 69% | 1009.3 hPa | 0 mm | - | 43 W/m² | - |
| 1777418352 | 21.67° C | 70% | 1009.3 hPa | 0 mm | - | 46 W/m² | - |
| 1777418048 | 21.67° C | 70% | 1009.4 hPa | 0 mm | - | 54 W/m² | - |
| 1777417744 | 21.67° C | 69% | 1009.3 hPa | 0 mm | - | 65 W/m² | - |
| 1777417439 | 21.67° C | 69% | 1008.9 hPa | 0 mm | - | 79 W/m² | - |
| 1777417136 | 22.22° C | 69% | 1008.8 hPa | 0 mm | - | 89 W/m² | - |
| 1777416832 | 22.22° C | 70% | 1008.7 hPa | 0 mm | - | 94 W/m² | - |
| 1777416528 | 22.22° C | 69% | 1008.4 hPa | 0 mm | - | 98 W/m² | - |
| 1777416224 | 22.78° C | 68% | 1008.2 hPa | 0 mm | - | 109 W/m² | - |
| 1777415923 | 22.78° C | 68% | 1008.1 hPa | 0 mm | - | 124 W/m² | - |
| 1777415619 | 22.78° C | 67% | 1008.4 hPa | 0 mm | - | 125 W/m² | - |
| 1777415315 | 22.78° C | 68% | 1008.4 hPa | 0 mm | - | 138 W/m² | - |
| 1777415010 | 22.78° C | 67% | 1008.8 hPa | 0 mm | - | 152 W/m² | - |
| 1777414709 | 22.78° C | 66% | 1009 hPa | 0 mm | - | 186 W/m² | - |
| 1777414406 | 23.33° C | 65% | 1009.4 hPa | 0 mm | - | 170 W/m² | - |
| 1777414105 | 23.33° C | 65% | 1009.3 hPa | 0 mm | - | 181 W/m² | - |
* Rain latest hour (hover to see other rain measurements)
** Current wind speed in m/s (hover to see current wind gust speed)